TimeMST,TemperatureF,Dew PointF,Humidity,Sea Level PressureIn,VisibilityMPH,Wind Direction,Wind SpeedMPH,Gust SpeedMPH,PrecipitationIn,Events,Conditions,WindDirDegrees,DateUTC
12:53 AM,-11.0,-20.0,64,30.75,5.0,Calm,Calm,-,N/A,,Haze,0,2013-01-04 07:53:00
1:15 AM,-11.2,-20.2,64,30.34,1.5,Calm,Calm,-,N/A,,Haze,0,2013-01-04 08:15:00
1:18 AM,-11.2,-20.2,64,30.34,0.8,Calm,Calm,-,N/A,,Haze,0,2013-01-04 08:18:00
1:53 AM,-11.9,-18.9,71,30.75,0.2,Calm,Calm,-,N/A,,Haze,0,2013-01-04 08:53:00
2:50 AM,-11.2,-20.2,64,30.35,1.2,Calm,Calm,-,N/A,,Haze,0,2013-01-04 09:50:00
2:53 AM,-11.9,-20.9,64,30.75,1.5,Calm,Calm,-,N/A,,Haze,0,2013-01-04 09:53:00
3:12 AM,-11.2,-18.4,70,30.34,3.0,Calm,Calm,-,N/A,,Haze,0,2013-01-04 10:12:00
3:53 AM,-11.0,-20.9,62,30.76,2.5,Calm,Calm,-,N/A,,Haze,0,2013-01-04 10:53:00
4:05 AM,-11.2,-20.2,64,30.34,4.0,Calm,Calm,-,N/A,,Haze,0,2013-01-04 11:05:00
4:24 AM,-11.2,-20.2,64,30.34,1.5,Calm,Calm,-,N/A,,Haze,0,2013-01-04 11:24:00
4:30 AM,-11.2,-20.2,64,30.34,0.8,Calm,Calm,-,N/A,,Haze,0,2013-01-04 11:30:00
4:53 AM,-13.0,-20.0,71,30.80,0.2,Calm,Calm,-,N/A,,Haze,0,2013-01-04 11:53:00
5:53 AM,-13.0,-20.9,68,30.82,0.5,Calm,Calm,-,N/A,,Haze,0,2013-01-04 12:53:00
6:06 AM,-14.8,-22.0,70,30.34,1.2,Calm,Calm,-,N/A,,Haze,0,2013-01-04 13:06:00
6:23 AM,-14.8,-22.0,70,30.35,1.0,Calm,Calm,-,N/A,,Haze,0,2013-01-04 13:23:00
6:32 AM,-14.8,-23.8,64,30.34,2.0,Calm,Calm,-,N/A,,Haze,0,2013-01-04 13:32:00
6:40 AM,-14.8,-25.6,58,30.35,6.0,Calm,Calm,-,N/A,,Haze,0,2013-01-04 13:40:00
6:53 AM,-18.0,-27.0,64,30.85,8.0,Calm,Calm,-,N/A,,Mostly Cloudy,0,2013-01-04 13:53:00
7:04 AM,-16.6,-25.6,64,30.35,10.0,Calm,Calm,-,N/A,,Scattered Clouds,0,2013-01-04 14:04:00
7:53 AM,-20.0,-29.9,60,30.87,10.0,ESE,3.5,-,N/A,,Clear,120,2013-01-04 14:53:00
8:26 AM,-13.0,-25.6,53,30.35,2.5,Calm,Calm,-,N/A,,Haze,0,2013-01-04 15:26:00
8:34 AM,-13.0,-25.6,53,30.34,1.8,Calm,Calm,-,N/A,,Haze,0,2013-01-04 15:34:00
8:37 AM,-14.8,-25.6,58,30.35,4.0,Calm,Calm,-,N/A,,Haze,0,2013-01-04 15:37:00
8:53 AM,-14.1,-22.0,68,30.84,5.0,Calm,Calm,-,N/A,,Haze,0,2013-01-04 15:53:00
9:53 AM,-8.0,-17.0,65,30.82,9.0,Calm,Calm,-,N/A,,Clear,0,2013-01-04 16:53:00
10:25 AM,-0.4,-7.6,72,30.35,10.0,Calm,Calm,-,N/A,,Scattered Clouds,0,2013-01-04 17:25:00
10:34 AM,-4.0,-16.6,55,30.34,10.0,Calm,Calm,-,N/A,,Mostly Cloudy,0,2013-01-04 17:34:00
10:53 AM,-4.0,-16.1,56,30.79,10.0,Calm,Calm,-,N/A,,Overcast,0,2013-01-04 17:53:00
11:36 AM,-2.2,-11.2,66,30.31,1.8,Calm,Calm,-,N/A,,Haze,0,2013-01-04 18:36:00
11:41 AM,-2.2,-11.2,66,30.31,0.8,Calm,Calm,-,N/A,,Haze,0,2013-01-04 18:41:00
11:50 AM,-0.4,-11.2,60,30.30,1.2,Calm,Calm,-,N/A,,Haze,0,2013-01-04 18:50:00
11:53 AM,1.0,-11.9,55,30.73,2.0,Calm,Calm,-,N/A,,Haze,0,2013-01-04 18:53:00
11:56 AM,1.4,-11.2,56,30.30,1.0,Calm,Calm,-,N/A,,Haze,0,2013-01-04 18:56:00
12:06 PM,1.4,-11.2,56,30.29,2.5,Calm,Calm,-,N/A,,Haze,0,2013-01-04 19:06:00
12:12 PM,1.4,-11.2,56,30.29,8.0,Calm,Calm,-,N/A,,Scattered Clouds,0,2013-01-04 19:12:00
12:48 PM,1.4,-11.2,56,30.26,7.0,Calm,Calm,-,N/A,,Mostly Cloudy,0,2013-01-04 19:48:00
12:53 PM,1.9,-9.9,58,30.67,8.0,Calm,Calm,-,N/A,,Mostly Cloudy,0,2013-01-04 19:53:00
1:53 PM,5.0,-7.1,58,30.63,9.0,Calm,Calm,-,N/A,,Overcast,0,2013-01-04 20:53:00
2:33 PM,3.2,-2.2,78,30.23,1.5,Calm,Calm,-,N/A,,Haze,0,2013-01-04 21:33:00
2:35 PM,3.2,-2.2,78,30.23,0.8,Calm,Calm,-,N/A,,Haze,0,2013-01-04 21:35:00
2:53 PM,7.0,-2.0,67,30.62,0.2,Calm,Calm,-,N/A,,Haze,0,2013-01-04 21:53:00
3:53 PM,5.0,-2.9,70,30.62,0.2,Calm,Calm,-,N/A,,Haze,0,2013-01-04 22:53:00
4:53 PM,-0.9,-8.0,72,30.66,0.8,SE,3.5,-,N/A,,Haze,140,2013-01-04 23:53:00
4:55 PM,-2.2,-9.4,71,30.23,2.5,Calm,Calm,-,N/A,,Haze,0,2013-01-04 23:55:00
5:00 PM,-2.2,-9.4,71,30.23,10.0,Calm,Calm,-,N/A,,Scattered Clouds,0,2013-01-05 00:00:00
5:53 PM,-5.1,-13.0,69,30.68,10.0,Calm,Calm,-,N/A,,Clear,0,2013-01-05 00:53:00
6:53 PM,-9.0,-18.0,65,30.73,10.0,Calm,Calm,-,N/A,,Clear,0,2013-01-05 01:53:00
7:53 PM,-11.9,-20.0,67,30.75,10.0,Calm,Calm,-,N/A,,Clear,0,2013-01-05 02:53:00
8:53 PM,-16.1,-24.0,67,30.73,10.0,Calm,Calm,-,N/A,,Clear,0,2013-01-05 03:53:00
9:53 PM,-14.1,-20.0,75,30.71,10.0,Calm,Calm,-,N/A,,Partly Cloudy,0,2013-01-05 04:53:00
10:06 PM,-13.0,-23.8,59,30.25,10.0,Calm,Calm,-,N/A,,Mostly Cloudy,0,2013-01-05 05:06:00
10:53 PM,-11.0,-20.9,62,30.70,9.0,Calm,Calm,-,N/A,,Overcast,0,2013-01-05 05:53:00
11:53 PM,-9.9,-20.0,61,30.67,6.0,Calm,Calm,-,N/A,,Haze,0,2013-01-05 06:53:00